Accueil
METAR-TAF:

METAR-TAF

Aéroports :

Turin, Italie

Aéroport Sandro-Pertini de Turin Caselle

latitude: 45-13N, longitude: 007-39E, altitude: 301 m

Observation

Le bulletin a été fait il y a 31 minutes, à 00:20 UTC
Vent 3 kt de ouest/sud-ouest, variant entre sud-ouest et ouest
Température 19°C
Humidité 56%
Pression 1010 hPa
Visibilité 10 km ou plus
pas de nuages en-dessous de 1500 mètres et pas de cumulonimbus.

METAR: LIMF 270020Z 25003KT 220V280 CAVOK 19/10 Q1010

Heure: 02:51 (00:51 UTC)

Prévision

Le bulletin a été fait il y a 1 heure et 51 minutes, à 23:00 UTC
Prévision valable du 27 à 00 UTC au 27 à 24 UTC
Vent 5 kt de direction variable
Visibilité 10 km ou plus
pas de nuages en-dessous de 1500 mètres et pas de cumulonimbus.

TAF: LIMF 262300Z 2700/2724 VRB05KT CAVOK

Observations et prévisions météorologiques de plus de 4000 aéroports (messages METAR et TAF).

Les stations disponibles sont représentées par des disques jaunes et rouges sur la carte.

Passer la souris dessus pour voir le nom de la station.

Cliquer dessus pour voir les observations et prévisions météorologiques.

Pour changer de carte: cliquez sur les boutons verts avec une croix noire pour zoomer, sur le bouton vert avec un tiret pour effectuer un zoom arrière, ou sur les flèches vertes pour les cartes adjacentes.


METAR-TAF: